Wind_Speed
9 6 8 7 7 3 1 2 3 3 6 8 7 6 9 11 13 15 16 16 16 15 16 16 17 16 15 14 15 17 17 14 12 10 10 9 9 9 9 10 12 9 9 9
7 9 8 5 5 7 8 6 5 4 7 9 8 6 10 12 13 12 15 16 16 16 17 16 16 15 14 13 12 12 12 11 10 9 9 8 8 9 11 13 15 16 14 14
11 4 9 7 7 8 9 9 5 2 9 8 9 9 11 12 14 14 13 14 16 16 16 17 18 17 14 13 12 11 10 10 11 11 10 9 9 9 9 12 15 18 18 18
15 14 12 9 8 8 9 6 8 7 11 9 11 6 11 12 14 16 15 16 17 18 17 16 18 16 13 11 13 14 13 12 11 11 11 11 8 11 11 14 15 17 19 19
18 11 17 12 10 9 6 6 8 9 9 5 7 11 11 11 13 15 16 16 17 18 18 17 16 15 14 12 11 14 17 16 15 11 9 7 6 6 9 11 13 15 17 19
12 14 16 15 15 12 7 7 4 5 9 13 7 9 13 10 11 11 15 18 22 24 23 23 22 23 19 14 12 10 15 17 16 13 9 9 9 11 9 10 11 13 14 16
14 14 14 20 11 12 11 12 14 11 11 13 5 8 3 4 10 10 13 17 24 29 29 27 25 24 19 20 18 21 18 19 18 17 15 13 14 14 12 14 13 13 13 13
20 13 16 17 17 14 17 18 18 11 10 11 2 9 6 15 13 14 12 17 23 32 31 31 29 26 22 23 25 25 28 26 22 21 21 15 19 14 16 16 15 15 16 16
18 15 18 16 18 16 13 15 15 16 12 16 19 3 13 11 11 8 6 15 23 26 24 30 32 27 25 23 24 26 29 31 30 20 23 17 11 14 16 23 19 19 19 22
13 15 12 16 15 16 14 12 10 14 14 13 12 9 6 5 9 9 10 18 27 32 33 34 30 26 24 24 19 16 20 19 11 18 7 8 10 11 13 12 13 12 13 14
13 19 13 13 15 14 12 12 11 12 9 13 9 5 13 15 13 11 12 17 23 31 35 39 32 22 24 23 24 18 15 13 9 8 7 11 11 13 12 13 15 16 17 18
16 14 14 16 12 18 15 11 12 14 14 15 15 4 5 13 11 17 15 18 24 29 33 31 32 28 19 20 21 25 23 16 12 12 14 16 17 19 22 23 25 26 27 28
15 12 11 8 7 10 10 10 11 10 10 12 13 2 6 15 17 16 12 14 18 22 26 27 28 22 20 16 13 18 22 23 36 28 27 27 28 30 32 33 35 35 36 38
16 10 14 10 7 9 10 8 8 12 15 15 15 8 7 16 20 18 14 16 16 17 15 12 9 9 7 12 9 15 12 15 23 32 34 39 37 38 41 43 44 46 47 49
12 11 8 5 1 5 8 8 8 12 15 15 10 7 13 16 19 20 18 17 16 14 12 10 10 11 12 13 14 16 19 22 25 30 36 41 44 47 51 53 55 57 59 60
21 10 10 5 5 5 5 5 7 9 11 12 11 9 13 16 21 22 21 19 17 16 14 14 15 17 19 21 24 27 30 34 37 42 46 50 53 55 58 61 64 65 66 67
17 14 12 7 4 4 9 11 9 12 12 10 11 13 16 16 21 24 23 22 20 18 16 17 19 22 25 27 30 33 36 40 44 48 50 52 57 59 62 64 65 67 67 67
12 11 6 4 5 9 6 12 15 12 15 10 16 16 15 15 18 22 23 21 19 17 19 20 23 26 28 31 34 37 39 40 40 42 45 49 51 53 56 57 58 61 63 66
12 8 3 5 8 5 10 14 7 6 6 9 9 9 10 15 18 19 18 16 17 19 21 24 28 31 33 34 34 34 34 37 40 41 45 49 55 57 57 58 57 55 56 58
5 2 1 3 7 6 1 6 8 6 7 3 2 3 4 10 11 14 17 17 20 23 25 28 30 30 29 29 31 34 35 37 40 44 45 49 50 51 52 52 52 47 46 52
6 8 9 7 8 5 6 10 9 5 4 2 3 3 4 7 13 17 20 21 24 27 28 27 26 27 28 28 29 31 34 39 40 40 43 46 48 52 48 48 47 43 44 43
9 7 6 5 7 6 6 10 7 6 6 4 4 7 10 14 15 18 22 24 26 25 24 23 24 26 26 28 28 30 31 35 36 37 37 38 45 51 50 44 44 47 45 45
6 9 5 7 2 4 3 8 9 11 10 9 10 11 13 16 18 21 23 22 23 23 24 24 25 24 23 25 25 26 27 28 28 29 35 36 42 46 46 37 42 48 42 37
12 11 9 7 10 9 8 8 10 10 12 12 12 13 15 17 20 21 22 21 21 23 24 24 23 20 19 19 20 23 26 28 28 29 33 38 39 43 45 46 37 38 43 45
10 9 9 8 11 9 10 8 11 12 12 13 15 14 15 17 18 19 18 20 22 24 23 21 18 17 15 17 19 23 26 27 29 30 34 37 35 38 41 46 42 32 36 40
10 9 7 7 8 7 9 8 9 11 15 17 17 17 16 17 17 17 19 20 22 19 17 16 15 15 16 18 19 25 27 27 28 30 32 33 34 33 40 47 48 32 27 27
Wind_Direction
191 183 185 191 203 229 203 143 126 148 172 161 172 167 163 165 170 179 180 182 179 174 175 161 148 143 139 140 153 165 176 189 204 216 224 230 234 237 237 234 229 233 242 254
217 212 211 210 241 268 241 239 214 178 170 168 170 164 171 178 174 180 182 184 185 185 186 179 162 151 146 150 153 160 178 194 207 213 226 230 239 241 241 243 240 245 251 245
227 213 222 248 279 270 234 227 199 194 168 172 172 175 176 182 184 184 181 189 189 189 192 190 173 162 163 163 165 169 173 185 198 205 214 220 221 224 234 239 239 242 246 248
239 238 225 241 244 221 196 216 202 175 180 181 195 122 182 195 190 195 188 190 192 194 194 204 183 170 156 167 180 184 188 194 203 205 206 208 212 220 211 234 240 243 246 248
231 242 218 221 216 190 190 155 166 195 233 253 212 268 158 177 196 203 200 196 196 197 200 200 190 173 173 170 194 204 202 201 205 201 207 222 205 223 235 239 240 246 253 253
222 224 208 211 220 203 194 166 166 206 241 241 187 242 147 159 164 189 206 213 198 195 190 188 197 187 188 201 199 218 222 209 201 210 226 248 238 250 247 243 250 249 251 253
219 210 205 209 212 210 197 220 231 222 219 242 169 226 162 164 231 225 221 209 198 188 185 188 185 193 195 207 219 209 205 207 217 224 222 229 243 256 261 263 266 263 253 257
207 199 198 206 200 223 218 232 246 258 256 261 155 251 194 257 262 262 253 232 200 197 203 206 212 213 220 222 224 221 224 218 223 231 231 241 247 274 258 264 263 259 262 267
217 214 198 190 207 208 224 223 246 270 265 272 267 201 262 255 248 254 219 179 186 189 200 213 219 220 221 224 219 230 238 230 218 213 225 256 261 271 260 261 262 254 255 262
226 216 196 195 192 201 216 221 233 239 267 259 252 251 238 205 227 226 182 190 188 190 204 212 221 223 221 224 228 243 258 263 266 238 223 264 263 259 256 272 285 285 287 294
216 217 190 198 210 222 214 228 234 254 254 288 264 212 210 233 224 206 194 190 192 199 212 218 223 230 228 226 234 250 256 252 225 219 248 261 263 261 262 263 270 280 281 282
206 218 203 207 223 219 221 237 226 235 215 241 276 299 263 235 233 218 214 214 208 207 218 226 230 239 245 245 243 247 254 240 251 267 268 274 277 280 283 285 286 286 286 287
205 217 183 198 206 206 208 217 218 234 258 264 275 147 213 220 227 225 214 221 222 217 220 233 234 235 246 229 233 250 249 263 246 235 267 279 282 285 286 286 287 287 286 285
193 221 233 233 215 192 201 203 222 245 266 266 246 203 236 208 218 221 206 195 202 208 211 209 195 196 198 226 231 235 236 240 236 250 268 276 286 287 286 286 287 288 289 289
204 216 202 234 232 170 187 204 236 254 260 261 292 242 202 208 202 213 212 201 196 194 201 211 224 238 252 265 272 272 271 270 270 269 272 276 280 283 287 289 290 290 289 287
208 206 169 136 155 174 207 228 240 250 250 251 257 232 191 195 200 204 205 205 209 216 224 236 246 256 263 269 275 279 282 284 285 287 289 290 289 287 286 286 285 284 283 282
196 201 189 181 190 222 249 241 250 248 246 245 242 229 205 217 200 203 206 211 217 226 238 251 260 266 271 275 279 283 285 286 285 285 285 284 284 283 283 284 284 283 282 280
196 189 166 158 199 241 249 266 259 249 247 235 230 225 245 201 188 201 209 219 231 245 257 266 275 281 286 289 291 291 291 291 293 294 293 291 289 289 289 287 286 284 281 280
147 133 151 226 243 308 285 266 237 201 260 246 228 235 204 192 205 215 224 238 254 267 277 282 285 289 291 292 292 292 296 297 296 296 301 304 308 307 303 299 296 291 287 282
152 182 217 239 279 265 211 222 194 185 226 215 172 161 192 205 211 234 251 261 273 280 285 288 290 290 291 292 293 296 298 303 308 313 317 318 316 315 306 302 302 298 291 286
248 243 242 240 251 258 239 191 188 228 128 252 266 218 213 220 228 252 265 279 282 285 289 291 292 295 295 295 299 305 312 313 316 319 322 326 325 322 318 310 305 303 308 295
219 224 227 238 254 243 226 193 198 241 267 260 266 265 273 266 273 276 281 284 286 287 288 290 293 295 300 303 306 310 313 312 317 322 324 328 329 326 323 316 310 307 307 305
230 225 239 223 248 228 236 228 248 238 236 258 269 274 269 273 277 278 278 281 283 285 290 293 293 295 298 302 311 312 314 317 321 327 330 332 332 339 336 323 325 322 319 308
244 239 228 233 243 252 255 233 235 246 260 265 269 263 268 268 268 267 273 277 282 287 291 292 291 295 296 301 309 314 316 319 323 324 328 328 335 340 346 343 317 330 322 319
230 229 222 236 256 261 272 247 242 266 268 280 282 275 271 268 264 265 271 279 287 292 289 287 288 291 295 304 308 317 322 326 323 323 327 325 334 343 346 346 343 333 323 313
236 229 232 259 251 255 231 253 261 273 283 287 286 275 280 268 270 274 279 283 294 295 294 286 288 295 299 303 313 321 325 329 323 327 330 340 341 338 342 343 341 340 326 314
Height
3191 3193 3193 3193 3195 3195 3197 3197 3198 3199 3200 3202 3204 3206 3205 3206 3210 3212 3213 3215 3218 3220 3222 3221 3221 3223 3225 3226 3228 3230 3233 3235 3237 3238 3240 3240 3241 3243 3244 3243 3243 3244 3245 3246
3192 3192 3192 3192 3193 3194 3195 3196 3197 3199 3199 3201 3203 3206 3206 3207 3210 3212 3213 3215 3218 3221 3223 3222 3222 3223 3225 3227 3228 3230 3232 3234 3236 3237 3238 3238 3239 3239 3240 3241 3242 3243 3243 3243
3190 3190 3189 3191 3192 3192 3193 3195 3196 3197 3199 3201 3202 3204 3206 3207 3209 3211 3214 3216 3218 3221 3223 3222 3222 3223 3225 3227 3228 3230 3231 3232 3234 3234 3235 3236 3236 3236 3238 3238 3239 3240 3241 3241
3187 3188 3189 3191 3192 3192 3192 3193 3195 3197 3197 3195 3199 3199 3204 3206 3208 3209 3211 3214 3216 3219 3222 3223 3222 3223 3225 3227 3228 3228 3230 3231 3232 3232 3233 3233 3234 3234 3237 3235 3235 3236 3238 3239
3186 3186 3187 3189 3190 3190 3191 3192 3195 3196 3195 3196 3198 3197 3200 3203 3207 3208 3210 3209 3213 3217 3219 3221 3223 3223 3224 3225 3226 3227 3228 3229 3230 3231 3231 3231 3232 3233 3233 3233 3233 3234 3234 3235
3182 3182 3185 3186 3187 3189 3190 3193 3194 3196 3195 3194 3193 3198 3197 3201 3204 3205 3208 3208 3209 3211 3214 3217 3219 3219 3221 3223 3225 3226 3227 3227 3228 3228 3228 3228 3230 3231 3230 3231 3231 3230 3230 3231
3181 3181 3180 3184 3187 3187 3189 3191 3189 3190 3189 3187 3192 3196 3193 3196 3195 3197 3200 3204 3207 3209 3211 3213 3216 3217 3218 3219 3220 3220 3222 3224 3223 3224 3224 3225 3226 3227 3228 3228 3228 3228 3228 3227
3175 3179 3178 3181 3183 3185 3187 3187 3185 3181 3181 3181 3188 3189 3190 3192 3192 3192 3194 3197 3203 3206 3208 3210 3211 3212 3214 3214 3214 3215 3216 3218 3220 3221 3224 3220 3223 3224 3225 3224 3224 3224 3224 3224
3172 3173 3174 3178 3179 3183 3185 3186 3186 3185 3185 3186 3183 3187 3190 3189 3190 3189 3190 3193 3197 3202 3203 3203 3204 3207 3209 3209 3211 3212 3213 3212 3211 3214 3217 3218 3218 3219 3219 3221 3219 3218 3218 3218
3170 3171 3174 3174 3177 3180 3181 3182 3184 3183 3182 3179 3177 3183 3186 3189 3187 3187 3187 3187 3190 3194 3195 3196 3198 3202 3204 3207 3209 3208 3208 3208 3209 3208 3213 3215 3215 3215 3216 3215 3214 3215 3215 3214
3168 3169 3171 3174 3175 3175 3179 3179 3181 3181 3181 3176 3172 3175 3182 3183 3184 3184 3185 3187 3188 3188 3187 3190 3194 3198 3201 3203 3205 3207 3206 3206 3208 3210 3211 3214 3213 3213 3213 3213 3212 3211 3210 3210
3166 3165 3167 3170 3169 3172 3174 3175 3176 3175 3177 3178 3178 3177 3179 3180 3180 3181 3181 3182 3183 3185 3186 3188 3191 3193 3197 3198 3199 3203 3204 3204 3204 3206 3209 3209 3207 3207 3207 3206 3205 3204 3203 3203
3164 3163 3166 3170 3173 3171 3173 3173 3175 3175 3175 3174 3175 3173 3175 3178 3177 3178 3179 3180 3181 3183 3185 3186 3187 3189 3191 3192 3194 3195 3197 3198 3199 3200 3202 3202 3201 3200 3199 3198 3197 3196 3195 3194
3161 3162 3161 3160 3162 3164 3171 3172 3173 3175 3172 3170 3172 3172 3173 3175 3175 3176 3178 3178 3179 3180 3181 3182 3183 3186 3188 3189 3187 3193 3195 3195 3195 3196 3194 3195 3192 3191 3190 3188 3186 3185 3182 3181
3161 3161 3163 3162 3163 3166 3169 3170 3171 3172 3172 3172 3170 3171 3171 3172 3173 3174 3176 3177 3178 3179 3181 3183 3184 3186 3186 3187 3188 3189 3190 3191 3191 3192 3190 3188 3185 3182 3178 3175 3172 3169 3168 3166
3157 3159 3162 3163 3164 3166 3167 3168 3168 3169 3169 3170 3170 3171 3169 3169 3170 3172 3174 3175 3177 3178 3180 3181 3181 3182 3183 3184 3184 3183 3182 3181 3180 3178 3175 3172 3170 3168 3165 3162 3159 3156 3153 3149
3153 3156 3159 3160 3164 3165 3166 3166 3165 3167 3166 3168 3169 3167 3165 3164 3166 3169 3171 3173 3175 3176 3177 3178 3179 3179 3179 3179 3179 3178 3177 3175 3173 3170 3168 3165 3160 3156 3152 3146 3141 3136 3133 3130
3152 3155 3158 3160 3163 3161 3159 3160 3161 3161 3161 3163 3162 3163 3163 3164 3166 3167 3168 3170 3172 3173 3174 3174 3174 3173 3173 3172 3171 3169 3167 3164 3161 3157 3152 3148 3145 3141 3135 3132 3127 3121 3116 3110
3153 3154 3158 3159 3158 3159 3158 3157 3158 3160 3161 3158 3159 3160 3160 3162 3164 3166 3167 3169 3170 3170 3170 3169 3168 3167 3166 3164 3162 3159 3157 3154 3150 3146 3140 3134 3126 3119 3113 3108 3103 3099 3093 3090
3153 3156 3159 3159 3158 3156 3157 3156 3157 3158 3159 3158 3159 3160 3160 3162 3166 3166 3165 3165 3165 3165 3164 3163 3161 3159 3157 3155 3153 3150 3146 3142 3137 3132 3127 3120 3114 3106 3096 3089 3084 3078 3073 3067
3154 3155 3157 3157 3157 3156 3155 3156 3157 3160 3162 3158 3159 3160 3161 3163 3164 3162 3162 3160 3159 3158 3156 3154 3152 3150 3149 3147 3144 3140 3136 3131 3128 3124 3118 3110 3103 3095 3087 3077 3070 3064 3057 3049
3156 3155 3154 3156 3155 3154 3154 3156 3160 3157 3157 3157 3158 3159 3159 3158 3158 3157 3155 3154 3152 3150 3149 3148 3146 3144 3142 3138 3136 3134 3131 3126 3123 3118 3111 3105 3098 3088 3078 3067 3057 3050 3043 3034
3153 3152 3152 3155 3153 3153 3154 3154 3154 3154 3155 3155 3155 3155 3155 3154 3153 3151 3150 3148 3147 3145 3143 3141 3140 3139 3136 3133 3131 3129 3125 3121 3117 3112 3106 3100 3093 3082 3070 3057 3048 3037 3030 3021
3147 3148 3150 3152 3150 3151 3151 3152 3152 3152 3151 3151 3151 3150 3150 3148 3147 3146 3145 3143 3142 3140 3138 3136 3134 3133 3132 3130 3127 3123 3119 3115 3111 3106 3100 3095 3087 3077 3065 3054 3043 3031 3022 3013
3146 3146 3147 3148 3148 3148 3148 3148 3148 3148 3147 3146 3146 3145 3144 3143 3142 3141 3140 3139 3137 3134 3132 3130 3129 3128 3127 3125 3122 3119 3115 3110 3105 3101 3096 3089 3080 3071 3062 3052 3039 3026 3018 3007
3143 3144 3146 3146 3144 3146 3145 3145 3144 3144 3143 3142 3140 3139 3138 3137 3137 3136 3135 3134 3132 3129 3126 3125 3124 3123 3121 3120 3117 3114 3110 3105 3099 3095 3091 3084 3075 3068 3057 3046 3033 3027 3014 3002